| time (UTC) | temp C | wind direction | speed KPH | gust KPH | rain 1hr cm | rain 24hr cm | rain mn cm | humidity % | barometer mb |
| 20260904143555 | 26 | 68 | 0.0 | 1.6 | 0.00 | 0.00 | 0.00 | 23 | 1014.5 |
| 20260904143051 | 25 | 137 | 1.6 | 3.2 | 0.00 | 0.00 | 0.00 | 24 | 1014.5 |
| 20260904142548 | 24 | 284 | 0.0 | 3.2 | 0.00 | 0.00 | 0.00 | 25 | 1014.6 |
| 20260904142043 | 24 | 218 | 0.0 | 1.6 | 0.00 | 0.00 | 0.00 | 26 | 1014.4 |
| 20260904141538 | 22 | 119 | 0.0 | 3.2 | 0.00 | 0.00 | 0.00 | 27 | 1014.5 |
| 20260904141034 | 21 | 213 | 0.0 | 3.2 | 0.00 | 0.00 | 0.00 | 28 | 1014.3 |
| 20260904140533 | 21 | 249 | 0.0 | 3.2 | 0.00 | 0.00 | 0.00 | 27 | 1014.1 |
| 20260904140028 | 21 | 176 | 0.0 | 3.2 | 0.00 | 0.00 | 0.00 | 28 | 1014.4 |
| 20260904135527 | 21 | 179 | 3.2 | 3.2 | 0.00 | 0.00 | 0.00 | 28 | 1014.3 |
| 20260904135024 | 21 | 220 | 3.2 | 3.2 | 0.00 | 0.00 | 0.00 | 27 | 1014.2 |
| 20260904134518 | 21 | 192 | 0.0 | 3.2 | 0.00 | 0.00 | 0.00 | 27 | 1014.0 |
| 20260904134013 | 21 | 229 | 0.0 | 3.2 | 0.00 | 0.00 | 0.00 | 28 | 1014.0 |
| 20260904133507 | 20 | 209 | 0.0 | 3.2 | 0.00 | 0.00 | 0.00 | 28 | 1014.1 |
| 20260904133003 | 19 | 155 | 1.6 | 3.2 | 0.00 | 0.00 | 0.00 | 31 | 1013.7 |
| 20260904132458 | 20 | 264 | 3.2 | 3.2 | 0.00 | 0.00 | 0.00 | 30 | 1013.7 |
| 20260904131957 | 20 | 212 | 0.0 | 3.2 | 0.00 | 0.00 | 0.00 | 30 | 1013.6 |
| 20260904131453 | 20 | 160 | 1.6 | 1.6 | 0.00 | 0.00 | 0.00 | 31 | 1013.5 |
| 20260904130948 | 20 | 165 | 0.0 | 1.6 | 0.00 | 0.00 | 0.00 | 31 | 1013.4 |
| 20260904130448 | 20 | 256 | 0.0 | 3.2 | 0.00 | 0.00 | 0.00 | 29 | 1013.3 |
| 20260904125948 | 20 | 232 | 3.2 | 6.4 | 0.00 | 0.00 | 0.00 | 30 | 1013.3 |
| 20260904125445 | 20 | 49 | 0.0 | 3.2 | 0.00 | 0.00 | 0.00 | 30 | 1013.2 |
| 20260904124944 | 20 | 46 | 1.6 | 3.2 | 0.00 | 0.00 | 0.00 | 29 | 1013.4 |
| 20260904124440 | 20 | 240 | 1.6 | 3.2 | 0.00 | 0.00 | 0.00 | 29 | 1013.2 |
| 20260904123935 | 21 | 305 | 0.0 | 3.2 | 0.00 | 0.00 | 0.00 | 29 | 1013.1 |
| 20260904123430 | 20 | 279 | 0.0 | 4.8 | 0.00 | 0.00 | 0.00 | 30 | 1013.2 |
| 20260904122925 | 21 | 243 | 1.6 | 3.2 | 0.00 | 0.00 | 0.00 | 29 | 1013.1 |
| 20260904122425 | 20 | 202 | 0.0 | 3.2 | 0.00 | 0.00 | 0.00 | 31 | 1013.2 |
| 20260904121919 | 20 | 242 | 3.2 | 4.8 | 0.00 | 0.00 | 0.00 | 30 | 1013.2 |
| 20260904121416 | 20 | 211 | 0.0 | 1.6 | 0.00 | 0.00 | 0.00 | 30 | 1013.2 |
| 20260904120912 | 21 | 223 | 0.0 | 1.6 | 0.00 | 0.00 | 0.00 | 30 | 1013.2 |
| 20260904120408 | 21 | 299 | 0.0 | 3.2 | 0.00 | 0.00 | 0.00 | 30 | 1013.2 |
| 20260904115903 | 21 | 251 | 0.0 | 3.2 | 0.00 | 0.00 | 0.00 | 29 | 1013.1 |
| 20260904115358 | 21 | 199 | 3.2 | 3.2 | 0.00 | 0.00 | 0.00 | 29 | 1013.2 |
| 20260904114853 | 22 | 89 | 0.0 | 3.2 | 0.00 | 0.00 | 0.00 | 29 | 1013.2 |
| 20260904114347 | 23 | 82 | 3.2 | 3.2 | 0.00 | 0.00 | 0.00 | 27 | 1013.2 |
| 20260904113842 | 23 | 48 | 0.0 | 3.2 | 0.00 | 0.00 | 0.00 | 27 | 1013.3 |
| 20260904113342 | 23 | 100 | 1.6 | 3.2 | 0.00 | 0.00 | 0.00 | 27 | 1013.1 |
| 20260904112837 | 23 | 306 | 0.0 | 3.2 | 0.00 | 0.00 | 0.00 | 27 | 1013.1 |
| 20260904112332 | 24 | 262 | 3.2 | 3.2 | 0.00 | 0.00 | 0.00 | 26 | 1013.1 |
| 20260904111828 | 25 | 110 | 4.8 | 9.7 | 0.00 | 0.00 | 0.00 | 25 | 1013.0 |
| 20260904111324 | 23 | 146 | 1.6 | 3.2 | 0.00 | 0.00 | 0.00 | 27 | 1013.1 |
| 20260904110819 | 23 | 251 | 4.8 | 6.4 | 0.00 | 0.00 | 0.00 | 27 | 1013.0 |
| 20260904110318 | 24 | 281 | 1.6 | 3.2 | 0.00 | 0.00 | 0.00 | 27 | 1012.8 |
| 20260904105813 | 23 | 236 | 1.6 | 4.8 | 0.00 | 0.00 | 0.00 | 27 | 1012.9 |
| 20260904105308 | 23 | 233 | 3.2 | 6.4 | 0.00 | 0.00 | 0.00 | 28 | 1012.9 |
| 20260904104803 | 23 | 158 | 0.0 | 3.2 | 0.00 | 0.00 | 0.00 | 28 | 1012.8 |
| 20260904104258 | 24 | 164 | 3.2 | 3.2 | 0.00 | 0.00 | 0.00 | 28 | 1012.6 |
| 20260904103755 | 24 | 125 | 0.0 | 3.2 | 0.00 | 0.00 | 0.00 | 27 | 1012.9 |
| 20260904103254 | 23 | 139 | 0.0 | 3.2 | 0.00 | 0.00 | 0.00 | 27 | 1012.7 |
| 20260904102750 | 23 | 285 | 1.6 | 3.2 | 0.00 | 0.00 | 0.00 | 27 | 1012.6 |
| 20260904102246 | 24 | 269 | 0.0 | 3.2 | 0.00 | 0.00 | 0.00 | 27 | 1012.7 |
| 20260904101742 | 24 | 150 | 3.2 | 4.8 | 0.00 | 0.00 | 0.00 | 27 | 1012.5 |
| 20260904101238 | 23 | 150 | 0.0 | 3.2 | 0.00 | 0.00 | 0.00 | 27 | 1012.4 |
| 20260904100733 | 23 | 198 | 0.0 | 3.2 | 0.00 | 0.00 | 0.00 | 28 | 1012.5 |
| 20260904100229 | 23 | 144 | 0.0 | 1.6 | 0.00 | 0.00 | 0.00 | 29 | 1012.4 |
| 20260904095728 | 24 | 202 | 0.0 | 4.8 | 0.00 | 0.00 | 0.00 | 28 | 1012.3 |
| 20260904095224 | 23 | 145 | 0.0 | 4.8 | 0.00 | 0.00 | 0.00 | 28 | 1012.4 |
| 20260904094719 | 22 | 190 | 3.2 | 3.2 | 0.00 | 0.00 | 0.00 | 29 | 1012.1 |
| 20260904094214 | 21 | 130 | 0.0 | 3.2 | 0.00 | 0.00 | 0.00 | 31 | 1012.2 |
| 20260904093711 | 22 | 240 | 0.0 | 4.8 | 0.00 | 0.00 | 0.00 | 30 | 1012.0 |
| 20260904093209 | 22 | 91 | 3.2 | 4.8 | 0.00 | 0.00 | 0.00 | 29 | 1012.1 |
| 20260904092706 | 23 | 217 | 3.2 | 3.2 | 0.00 | 0.00 | 0.00 | 29 | 1012.1 |
| 20260904092201 | 23 | 179 | 1.6 | 4.8 | 0.00 | 0.00 | 0.00 | 29 | 1012.2 |
| 20260904091657 | 22 | 11 | 3.2 | 3.2 | 0.00 | 0.00 | 0.00 | 30 | 1012.1 |
| 20260904091157 | 22 | 322 | 0.0 | 3.2 | 0.00 | 0.00 | 0.00 | 32 | 1012.3 |
| 20260904090653 | 22 | 143 | 3.2 | 3.2 | 0.00 | 0.00 | 0.00 | 33 | 1012.5 |
| 20260904090148 | 22 | 271 | 0.0 | 1.6 | 0.00 | 0.00 | 0.00 | 31 | 1012.4 |
| 20260904085644 | 22 | 235 | 0.0 | 4.8 | 0.00 | 0.00 | 0.00 | 31 | 1012.5 |
| 20260904085143 | 23 | 55 | 0.0 | 3.2 | 0.00 | 0.00 | 0.00 | 30 | 1012.4 |
| 20260904084639 | 23 | 59 | 3.2 | 4.8 | 0.00 | 0.00 | 0.00 | 29 | 1012.6 |
| 20260904084135 | 23 | 258 | 3.2 | 6.4 | 0.00 | 0.00 | 0.00 | 30 | 1012.5 |
| 20260904083631 | 24 | 269 | 0.0 | 3.2 | 0.00 | 0.00 | 0.00 | 29 | 1012.4 |
| 20260904083127 | 24 | 231 | 3.2 | 3.2 | 0.00 | 0.00 | 0.00 | 30 | 1012.5 |
| 20260904082622 | 24 | 299 | 0.0 | 1.6 | 0.00 | 0.00 | 0.00 | 30 | 1012.6 |
| 20260904082117 | 25 | 87 | 1.6 | 3.2 | 0.00 | 0.00 | 0.00 | 30 | 1012.6 |
| 20260904081612 | 25 | 249 | 0.0 | 3.2 | 0.00 | 0.00 | 0.00 | 30 | 1012.4 |
| 20260904081108 | 25 | 224 | 0.0 | 3.2 | 0.00 | 0.00 | 0.00 | 31 | 1012.8 |
| 20260904080603 | 25 | 89 | 0.0 | 0.0 | 0.00 | 0.00 | 0.00 | 29 | 1012.8 |
| 20260904080059 | 26 | 85 | 1.6 | 3.2 | 0.00 | 0.00 | 0.00 | 28 | 1012.9 |
| 20260904075555 | 26 | 334 | 1.6 | 4.8 | 0.00 | 0.00 | 0.00 | 27 | 1012.8 |
| 20260904075049 | 26 | 15 | 3.2 | 4.8 | 0.00 | 0.00 | 0.00 | 27 | 1012.9 |
| 20260904074549 | 27 | 54 | 3.2 | 4.8 | 0.00 | 0.00 | 0.00 | 25 | 1012.8 |
| 20260904074043 | 27 | 316 | 6.4 | 12.9 | 0.00 | 0.00 | 0.00 | 21 | 1012.8 |
| 20260904073538 | 26 | 305 | 0.0 | 4.8 | 0.00 | 0.00 | 0.00 | 26 | 1013.0 |
| 20260904073035 | 26 | 248 | 1.6 | 4.8 | 0.00 | 0.00 | 0.00 | 30 | 1013.2 |
| 20260904072530 | 25 | 330 | 3.2 | 4.8 | 0.00 | 0.00 | 0.00 | 34 | 1013.1 |
| 20260904072025 | 25 | 55 | 0.0 | 1.6 | 0.00 | 0.00 | 0.00 | 36 | 1013.1 |
| 20260904071521 | 25 | 85 | 3.2 | 4.8 | 0.00 | 0.00 | 0.00 | 36 | 1013.1 |
| 20260904071016 | 25 | 63 | 0.0 | 4.8 | 0.00 | 0.00 | 0.00 | 36 | 1013.3 |
| 20260904070514 | 25 | 284 | 3.2 | 8.0 | 0.00 | 0.00 | 0.00 | 36 | 1013.1 |
| 20260904070009 | 26 | 314 | 9.7 | 11.3 | 0.00 | 0.00 | 0.00 | 34 | 1013.2 |
| 20260904065505 | 27 | 334 | 6.4 | 16.1 | 0.00 | 0.00 | 0.00 | 21 | 1013.0 |
| 20260904065000 | 26 | 174 | 0.0 | 6.4 | 0.00 | 0.00 | 0.00 | 25 | 1012.9 |
| 20260904064456 | 25 | 353 | 1.6 | 4.8 | 0.00 | 0.00 | 0.00 | 34 | 1013.1 |
| 20260904063950 | 25 | 98 | 3.2 | 3.2 | 0.00 | 0.00 | 0.00 | 34 | 1013.0 |
| 20260904063447 | 25 | 282 | 3.2 | 3.2 | 0.00 | 0.00 | 0.00 | 33 | 1013.1 |
| 20260904062942 | 25 | 226 | 0.0 | 6.4 | 0.00 | 0.00 | 0.00 | 34 | 1012.7 |
| 20260904062438 | 26 | 244 | 1.6 | 3.2 | 0.00 | 0.00 | 0.00 | 33 | 1013.0 |
| 20260904061933 | 27 | 92 | 3.2 | 8.0 | 0.00 | 0.00 | 0.00 | 30 | 1013.0 |
| 20260904061430 | 27 | 7 | 1.6 | 8.0 | 0.00 | 0.00 | 0.00 | 31 | 1012.9 |
| 20260904060926 | 26 | 198 | 1.6 | 4.8 | 0.00 | 0.00 | 0.00 | 33 | 1012.9 |
| 20260904060421 | 26 | 194 | 4.8 | 4.8 | 0.00 | 0.00 | 0.00 | 33 | 1012.9 |
| 20260904055917 | 26 | 88 | 1.6 | 6.4 | 0.00 | 0.00 | 0.00 | 34 | 1012.8 |
| 20260904055412 | 26 | 108 | 6.4 | 6.4 | 0.00 | 0.00 | 0.00 | 34 | 1012.9 |
| 20260904054908 | 26 | 139 | 3.2 | 3.2 | 0.00 | 0.00 | 0.00 | 34 | 1012.9 |
| 20260904054403 | 26 | 190 | 1.6 | 3.2 | 0.00 | 0.00 | 0.00 | 35 | 1012.8 |
| 20260904053859 | 26 | 260 | 0.0 | 3.2 | 0.00 | 0.00 | 0.00 | 35 | 1012.8 |
| 20260904053358 | 26 | 99 | 3.2 | 6.4 | 0.00 | 0.00 | 0.00 | 34 | 1012.8 |
| 20260904052854 | 26 | 52 | 0.0 | 3.2 | 0.00 | 0.00 | 0.00 | 35 | 1012.9 |
| 20260904052350 | 26 | 89 | 0.0 | 3.2 | 0.00 | 0.00 | 0.00 | 35 | 1012.8 |
| 20260904051846 | 26 | 96 | 3.2 | 3.2 | 0.00 | 0.00 | 0.00 | 35 | 1012.8 |
| 20260904051337 | 27 | 62 | 0.0 | 3.2 | 0.00 | 0.00 | 0.00 | 35 | 1012.9 |
| 20260904050837 | 27 | 91 | 3.2 | 4.8 | 0.00 | 0.00 | 0.00 | 34 | 1012.8 |
| 20260904050334 | 27 | 107 | 4.8 | 6.4 | 0.00 | 0.00 | 0.00 | 35 | 1012.8 |
| 20260904045833 | 26 | 56 | 3.2 | 4.8 | 0.00 | 0.00 | 0.00 | 35 | 1012.9 |
| 20260904045328 | 26 | 41 | 1.6 | 4.8 | 0.00 | 0.00 | 0.00 | 36 | 1013.0 |
| 20260904044828 | 26 | 66 | 0.0 | 3.2 | 0.00 | 0.00 | 0.00 | 36 | 1012.9 |
| 20260904044325 | 26 | 359 | 3.2 | 4.8 | 0.00 | 0.00 | 0.00 | 36 | 1012.9 |
| 20260904043821 | 27 | 276 | 3.2 | 4.8 | 0.00 | 0.00 | 0.00 | 34 | 1012.8 |
| 20260904043318 | 27 | 92 | 3.2 | 6.4 | 0.00 | 0.00 | 0.00 | 34 | 1012.6 |
| 20260904042817 | 27 | 67 | 3.2 | 4.8 | 0.00 | 0.00 | 0.00 | 34 | 1012.8 |
| 20260904042314 | 26 | 46 | 0.0 | 3.2 | 0.00 | 0.00 | 0.00 | 35 | 1013.0 |
| 20260904041814 | 26 | 55 | 1.6 | 3.2 | 0.00 | 0.00 | 0.00 | 36 | 1012.8 |
| 20260904041310 | 26 | 114 | 0.0 | 1.6 | 0.00 | 0.00 | 0.00 | 35 | 1012.6 |
| 20260904040806 | 27 | 265 | 1.6 | 3.2 | 0.00 | 0.00 | 0.00 | 34 | 1012.8 |
| 20260904040301 | 27 | 261 | 4.8 | 4.8 | 0.00 | 0.00 | 0.00 | 34 | 1012.6 |
| 20260904035757 | 27 | 287 | 3.2 | 3.2 | 0.00 | 0.00 | 0.00 | 32 | 1012.5 |
| 20260904035253 | 28 | 3 | 1.6 | 3.2 | 0.00 | 0.00 | 0.00 | 31 | 1012.6 |
| 20260904034751 | 28 | 330 | 6.4 | 9.7 | 0.00 | 0.00 | 0.00 | 31 | 1012.6 |
| 20260904034248 | 30 | 285 | 11.3 | 11.3 | 0.00 | 0.00 | 0.00 | 28 | 1012.3 |
| 20260904033743 | 30 | 258 | 6.4 | 16.1 | 0.00 | 0.00 | 0.00 | 27 | 1012.4 |
| 20260904033240 | 30 | 257 | 11.3 | 14.5 | 0.00 | 0.00 | 0.00 | 28 | 1012.3 |
| 20260904032736 | 30 | 242 | 12.9 | 17.7 | 0.00 | 0.00 | 0.00 | 29 | 1012.4 |
| 20260904032234 | 30 | 269 | 11.3 | 17.7 | 0.00 | 0.00 | 0.00 | 29 | 1012.2 |
| 20260904031729 | 30 | 243 | 8.0 | 20.9 | 0.00 | 0.00 | 0.00 | 29 | 1012.1 |
| 20260904031224 | 30 | 257 | 8.0 | 22.5 | 0.00 | 0.00 | 0.00 | 29 | 1012.2 |
| 20260904030720 | 30 | 263 | 8.0 | 17.7 | 0.00 | 0.00 | 0.00 | 28 | 1012.0 |
| 20260904030215 | 30 | 277 | 9.7 | 17.7 | 0.00 | 0.00 | 0.00 | 28 | 1012.0 |
| 20260904025712 | 30 | 249 | 14.5 | 14.5 | 0.00 | 0.00 | 0.00 | 28 | 1011.7 |
| 20260904025206 | 30 | 253 | 16.1 | 20.9 | 0.00 | 0.00 | 0.00 | 28 | 1011.6 |
| 20260904024702 | 30 | 252 | 9.7 | 22.5 | 0.00 | 0.00 | 0.00 | 28 | 1011.6 |
| 20260904024157 | 30 | 276 | 8.0 | 20.9 | 0.00 | 0.00 | 0.00 | 29 | 1011.5 |
| 20260904023653 | 30 | 282 | 8.0 | 16.1 | 0.00 | 0.00 | 0.00 | 29 | 1011.3 |
| 20260904023149 | 30 | 265 | 14.5 | 14.5 | 0.00 | 0.00 | 0.00 | 29 | 1011.4 |
| 20260904022648 | 30 | 273 | 9.7 | 17.7 | 0.00 | 0.00 | 0.00 | 28 | 1011.3 |
| 20260904022146 | 30 | 263 | 8.0 | 17.7 | 0.00 | 0.00 | 0.00 | 29 | 1011.2 |
| 20260904021641 | 30 | 264 | 8.0 | 16.1 | 0.00 | 0.00 | 0.00 | 29 | 1011.4 |
| 20260904021136 | 30 | 258 | 17.7 | 22.5 | 0.00 | 0.00 | 0.00 | 29 | 1011.3 |
| 20260904020633 | 31 | 259 | 12.9 | 20.9 | 0.00 | 0.00 | 0.00 | 28 | 1011.2 |
| 20260904020126 | 31 | 284 | 11.3 | 16.1 | 0.00 | 0.00 | 0.00 | 29 | 1011.5 |
| 20260904015620 | 31 | 293 | 9.7 | 20.9 | 0.00 | 0.00 | 0.00 | 29 | 1011.4 |
| 20260904015119 | 31 | 249 | 14.5 | 29.0 | 0.00 | 0.00 | 0.00 | 29 | 1011.4 |
| 20260904014619 | 31 | 271 | 9.7 | 19.3 | 0.00 | 0.00 | 0.00 | 29 | 1011.5 |
| 20260904014114 | 31 | 258 | 14.5 | 20.9 | 0.00 | 0.00 | 0.00 | 29 | 1011.2 |
| 20260904013611 | 31 | 281 | 12.9 | 17.7 | 0.00 | 0.00 | 0.00 | 28 | 1011.3 |
| 20260904013107 | 31 | 269 | 9.7 | 20.9 | 0.00 | 0.00 | 0.00 | 28 | 1011.4 |
| 20260904012602 | 32 | 274 | 17.7 | 22.5 | 0.00 | 0.00 | 0.00 | 28 | 1011.4 |
| 20260904012101 | 32 | 266 | 11.3 | 16.1 | 0.00 | 0.00 | 0.00 | 27 | 1011.3 |
| 20260904011600 | 32 | 251 | 11.3 | 14.5 | 0.00 | 0.00 | 0.00 | 27 | 1011.3 |
| 20260904011056 | 32 | 297 | 11.3 | 16.1 | 0.00 | 0.00 | 0.00 | 26 | 1011.5 |
| 20260904010552 | 33 | 279 | 6.4 | 8.0 | 0.00 | 0.00 | 0.00 | 25 | 1011.5 |
| 20260904010049 | 33 | 249 | 12.9 | 24.1 | 0.00 | 0.00 | 0.00 | 25 | 1011.4 |
| 20260904005548 | 34 | 313 | 8.0 | 16.1 | 0.00 | 0.00 | 0.00 | 24 | 1011.4 |
| 20260904005043 | 33 | 272 | 11.3 | 17.7 | 0.00 | 0.00 | 0.00 | 25 | 1011.2 |
| 20260904004539 | 33 | 256 | 8.0 | 22.5 | 0.00 | 0.00 | 0.00 | 25 | 1011.3 |
| 20260904004034 | 34 | 305 | 11.3 | 22.5 | 0.00 | 0.00 | 0.00 | 26 | 1011.2 |
| 20260904003530 | 34 | 265 | 11.3 | 20.9 | 0.00 | 0.00 | 0.00 | 25 | 1011.1 |
| 20260904003025 | 35 | 304 | 12.9 | 16.1 | 0.00 | 0.00 | 0.00 | 24 | 1011.1 |
| 20260904002521 | 35 | 290 | 8.0 | 17.7 | 0.00 | 0.00 | 0.00 | 24 | 1011.3 |
| 20260904002021 | 35 | 297 | 14.5 | 17.7 | 0.00 | 0.00 | 0.00 | 24 | 1011.4 |
| 20260904001517 | 35 | 244 | 19.3 | 25.7 | 0.00 | 0.00 | 0.00 | 25 | 1011.2 |
| 20260904001016 | 35 | 256 | 8.0 | 22.5 | 0.00 | 0.00 | 0.00 | 23 | 1011.2 |
| 20260904000515 | 35 | 317 | 17.7 | 25.7 | 0.00 | 0.00 | 0.00 | 24 | 1011.2 |
| 20260904000012 | 35 | 266 | 19.3 | 32.2 | 0.00 | 0.00 | 0.00 | 24 | 1011.3 |
| 20260903235511 | 35 | 307 | 11.3 | 24.1 | 0.00 | 0.00 | 0.00 | 24 | 1011.2 |
| 20260903235007 | 35 | 242 | 14.5 | 30.6 | 0.00 | 0.00 | 0.00 | 23 | 1011.3 |
| 20260903234502 | 35 | 271 | 9.7 | 29.0 | 0.00 | 0.00 | 0.00 | 25 | 1011.3 |
| 20260903233958 | 35 | 268 | 19.3 | 30.6 | 0.00 | 0.00 | 0.00 | 25 | 1011.2 |
| 20260903233454 | 35 | 261 | 14.5 | 17.7 | 0.00 | 0.00 | 0.00 | 25 | 1011.5 |
| 20260903232949 | 35 | 248 | 17.7 | 30.6 | 0.00 | 0.00 | 0.00 | 25 | 1011.7 |
| 20260903232444 | 35 | 258 | 14.5 | 22.5 | 0.00 | 0.00 | 0.00 | 24 | 1011.6 |
| 20260903231944 | 35 | 263 | 19.3 | 27.4 | 0.00 | 0.00 | 0.00 | 23 | 1011.8 |
| 20260903231439 | 35 | 268 | 12.9 | 35.4 | 0.00 | 0.00 | 0.00 | 23 | 1012.0 |
| 20260903230933 | 35 | 292 | 12.9 | 29.0 | 0.00 | 0.00 | 0.00 | 22 | 1011.8 |
| 20260903230429 | 36 | 295 | 14.5 | 24.1 | 0.00 | 0.00 | 0.00 | 22 | 1012.1 |
| 20260903225926 | 36 | 258 | 16.1 | 30.6 | 0.00 | 0.00 | 0.00 | 21 | 1012.0 |
| 20260903225421 | 36 | 249 | 20.9 | 32.2 | 0.00 | 0.00 | 0.00 | 20 | 1011.8 |
| 20260903224917 | 36 | 258 | 17.7 | 32.2 | 0.00 | 0.00 | 0.00 | 20 | 1012.2 |
| 20260903224413 | 36 | 277 | 16.1 | 24.1 | 0.00 | 0.00 | 0.00 | 19 | 1012.2 |
| 20260903223909 | 36 | 237 | 8.0 | 22.5 | 0.00 | 0.00 | 0.00 | 18 | 1012.2 |
| 20260903223408 | 36 | 254 | 16.1 | 29.0 | 0.00 | 0.00 | 0.00 | 17 | 1012.1 |
| 20260903222907 | 36 | 253 | 22.5 | 27.4 | 0.00 | 0.00 | 0.00 | 18 | 1012.3 |
| 20260903222403 | 36 | 280 | 12.9 | 27.4 | 0.00 | 0.00 | 0.00 | 17 | 1012.4 |
| 20260903221857 | 36 | 242 | 24.1 | 33.8 | 0.00 | 0.00 | 0.00 | 17 | 1012.2 |
| 20260903221355 | 37 | 229 | 20.9 | 32.2 | 0.00 | 0.00 | 0.00 | 16 | 1012.4 |
| 20260903220854 | 37 | 259 | 14.5 | 27.4 | 0.00 | 0.00 | 0.00 | 15 | 1012.3 |
| 20260903220348 | 37 | 304 | 14.5 | 20.9 | 0.00 | 0.00 | 0.00 | 16 | 1012.4 |
| 20260903215847 | 37 | 241 | 20.9 | 24.1 | 0.00 | 0.00 | 0.00 | 16 | 1012.3 |
| 20260903215343 | 37 | 231 | 17.7 | 24.1 | 0.00 | 0.00 | 0.00 | 16 | 1012.4 |
| 20260903214842 | 37 | 286 | 14.5 | 20.9 | 0.00 | 0.00 | 0.00 | 16 | 1012.4 |
| 20260903214338 | 37 | 246 | 27.4 | 29.0 | 0.00 | 0.00 | 0.00 | 16 | 1012.2 |
| 20260903213837 | 37 | 302 | 12.9 | 25.7 | 0.00 | 0.00 | 0.00 | 16 | 1012.4 |
| 20260903213332 | 37 | 254 | 22.5 | 24.1 | 0.00 | 0.00 | 0.00 | 16 | 1012.5 |
| 20260903212828 | 37 | 263 | 11.3 | 30.6 | 0.00 | 0.00 | 0.00 | 15 | 1012.6 |
| 20260903212325 | 37 | 265 | 6.4 | 24.1 | 0.00 | 0.00 | 0.00 | 15 | 1012.6 |
| 20260903211824 | 37 | 327 | 20.9 | 32.2 | 0.00 | 0.00 | 0.00 | 15 | 1012.7 |
| 20260903211320 | 37 | 310 | 14.5 | 24.1 | 0.00 | 0.00 | 0.00 | 15 | 1012.8 |
| 20260903210816 | 37 | 309 | 12.9 | 22.5 | 0.00 | 0.00 | 0.00 | 14 | 1012.7 |
| 20260903210311 | 37 | 319 | 16.1 | 20.9 | 0.00 | 0.00 | 0.00 | 14 | 1012.8 |
| 20260903205810 | 37 | 310 | 8.0 | 24.1 | 0.00 | 0.00 | 0.00 | 14 | 1012.8 |
| 20260903205310 | 37 | 259 | 12.9 | 20.9 | 0.00 | 0.00 | 0.00 | 14 | 1012.9 |
| 20260903204805 | 37 | 309 | 9.7 | 20.9 | 0.00 | 0.00 | 0.00 | 13 | 1012.9 |
| 20260903204301 | 37 | 299 | 4.8 | 20.9 | 0.00 | 0.00 | 0.00 | 13 | 1012.8 |
| 20260903203757 | 37 | 308 | 12.9 | 17.7 | 0.00 | 0.00 | 0.00 | 13 | 1012.8 |
| 20260903203252 | 37 | 290 | 12.9 | 17.7 | 0.00 | 0.00 | 0.00 | 13 | 1013.0 |
| 20260903202751 | 38 | 346 | 6.4 | 9.7 | 0.00 | 0.00 | 0.00 | 12 | 1013.0 |
| 20260903202248 | 37 | 308 | 8.0 | 9.7 | 0.00 | 0.00 | 0.00 | 12 | 1013.2 |
| 20260903201746 | 37 | 301 | 8.0 | 14.5 | 0.00 | 0.00 | 0.00 | 12 | 1013.2 |
| 20260903201242 | 37 | 105 | 1.6 | 12.9 | 0.00 | 0.00 | 0.00 | 11 | 1013.0 |
| 20260903200741 | 36 | 297 | 6.4 | 8.0 | 0.00 | 0.00 | 0.00 | 11 | 1013.3 |
| 20260903200236 | 37 | 354 | 4.8 | 9.7 | 0.00 | 0.00 | 0.00 | 12 | 1013.3 |
| 20260903195732 | 37 | 187 | 4.8 | 6.4 | 0.00 | 0.00 | 0.00 | 10 | 1013.4 |
| 20260903195228 | 37 | 201 | 1.6 | 6.4 | 0.00 | 0.00 | 0.00 | 10 | 1013.4 |
| 20260903194728 | 37 | 344 | 1.6 | 4.8 | 0.00 | 0.00 | 0.00 | 10 | 1013.5 |
| 20260903194223 | 37 | 221 | 6.4 | 6.4 | 0.00 | 0.00 | 0.00 | 11 | 1013.7 |
| 20260903193719 | 36 | 63 | 3.2 | 8.0 | 0.00 | 0.00 | 0.00 | 11 | 1013.5 |
| 20260903193214 | 37 | 86 | 0.0 | 4.8 | 0.00 | 0.00 | 0.00 | 10 | 1013.8 |
| 20260903192710 | 36 | 39 | 3.2 | 6.4 | 0.00 | 0.00 | 0.00 | 11 | 1013.9 |
| 20260903192205 | 36 | 102 | 8.0 | 9.7 | 0.00 | 0.00 | 0.00 | 11 | 1014.0 |
| 20260903191701 | 35 | 275 | 1.6 | 12.9 | 0.00 | 0.00 | 0.00 | 11 | 1014.0 |
| 20260903191156 | 36 | 118 | 4.8 | 6.4 | 0.00 | 0.00 | 0.00 | 11 | 1014.1 |
| 20260903190651 | 37 | 55 | 0.0 | 6.4 | 0.00 | 0.00 | 0.00 | 10 | 1014.3 |
| 20260903190151 | 37 | 221 | 0.0 | 6.4 | 0.00 | 0.00 | 0.00 | 10 | 1014.3 |
| 20260903185646 | 36 | 84 | 1.6 | 9.7 | 0.00 | 0.00 | 0.00 | 10 | 1014.3 |
| 20260903185141 | 36 | 77 | 4.8 | 11.3 | 0.00 | 0.00 | 0.00 | 11 | 1014.5 |
| 20260903184638 | 36 | 220 | 3.2 | 6.4 | 0.00 | 0.00 | 0.00 | 11 | 1014.6 |
| 20260903184133 | 36 | 67 | 4.8 | 8.0 | 0.00 | 0.00 | 0.00 | 11 | 1014.6 |
| 20260903183631 | 35 | 307 | 6.4 | 6.4 | 0.00 | 0.00 | 0.00 | 11 | 1014.8 |
| 20260903183126 | 35 | 105 | 0.0 | 6.4 | 0.00 | 0.00 | 0.00 | 11 | 1014.7 |
| 20260903182626 | 35 | 96 | 4.8 | 6.4 | 0.00 | 0.00 | 0.00 | 11 | 1014.9 |
| 20260903182122 | 35 | 74 | 6.4 | 8.0 | 0.00 | 0.00 | 0.00 | 11 | 1015.0 |
| 20260903181620 | 35 | 139 | 1.6 | 6.4 | 0.00 | 0.00 | 0.00 | 10 | 1015.1 |
| 20260903181115 | 35 | 230 | 0.0 | 9.7 | 0.00 | 0.00 | 0.00 | 11 | 1015.1 |
| 20260903180610 | 35 | 251 | 4.8 | 6.4 | 0.00 | 0.00 | 0.00 | 11 | 1015.1 |
| 20260903180104 | 35 | 115 | 3.2 | 6.4 | 0.00 | 0.00 | 0.00 | 10 | 1015.0 |
| 20260903175603 | 35 | 84 | 3.2 | 9.7 | 0.00 | 0.00 | 0.00 | 10 | 1015.2 |
| 20260903175103 | 34 | 100 | 6.4 | 6.4 | 0.00 | 0.00 | 0.00 | 10 | 1015.2 |
| 20260903174558 | 33 | 84 | 3.2 | 8.0 | 0.00 | 0.00 | 0.00 | 11 | 1015.3 |
| 20260903174052 | 33 | 269 | 0.0 | 4.8 | 0.00 | 0.00 | 0.00 | 11 | 1015.3 |
| 20260903173547 | 34 | 150 | 0.0 | 4.8 | 0.00 | 0.00 | 0.00 | 10 | 1015.4 |
| 20260903173045 | 33 | 143 | 3.2 | 3.2 | 0.00 | 0.00 | 0.00 | 10 | 1015.3 |
| 20260903172544 | 33 | 143 | 1.6 | 6.4 | 0.00 | 0.00 | 0.00 | 11 | 1015.3 |
| 20260903172040 | 33 | 88 | 4.8 | 9.7 | 0.00 | 0.00 | 0.00 | 11 | 1015.2 |
| 20260903171535 | 33 | 5 | 1.6 | 3.2 | 0.00 | 0.00 | 0.00 | 12 | 1015.4 |
| 20260903171030 | 33 | 104 | 3.2 | 6.4 | 0.00 | 0.00 | 0.00 | 12 | 1015.1 |
| 20260903170523 | 32 | 128 | 3.2 | 4.8 | 0.00 | 0.00 | 0.00 | 12 | 1015.5 |
| 20260903170019 | 32 | 86 | 3.2 | 6.4 | 0.00 | 0.00 | 0.00 | 11 | 1015.4 |
| 20260903165516 | 32 | 322 | 0.0 | 6.4 | 0.00 | 0.00 | 0.00 | 12 | 1015.5 |
| 20260903165012 | 33 | 58 | 1.6 | 4.8 | 0.00 | 0.00 | 0.00 | 11 | 1015.4 |
| 20260903164506 | 32 | 66 | 3.2 | 4.8 | 0.00 | 0.00 | 0.00 | 12 | 1015.4 |
| 20260903164001 | 32 | 94 | 0.0 | 4.8 | 0.00 | 0.00 | 0.00 | 11 | 1015.2 |
| 20260903163456 | 32 | 293 | 0.0 | 3.2 | 0.00 | 0.00 | 0.00 | 11 | 1015.4 |
| 20260903162952 | 31 | 99 | 3.2 | 6.4 | 0.00 | 0.00 | 0.00 | 12 | 1015.1 |
| 20260903162448 | 31 | 349 | 3.2 | 3.2 | 0.00 | 0.00 | 0.00 | 13 | 1015.4 |
| 20260903161944 | 31 | 83 | 3.2 | 3.2 | 0.00 | 0.00 | 0.00 | 12 | 1015.3 |
| 20260903161434 | 31 | 68 | 3.2 | 3.2 | 0.00 | 0.00 | 0.00 | 12 | 1015.3 |
| 20260903160930 | 31 | 51 | 0.0 | 3.2 | 0.00 | 0.00 | 0.00 | 12 | 1015.4 |
| 20260903160429 | 31 | 81 | 3.2 | 4.8 | 0.00 | 0.00 | 0.00 | 12 | 1015.5 |
| 20260903155928 | 31 | 51 | 3.2 | 3.2 | 0.00 | 0.00 | 0.00 | 13 | 1015.4 |
| 20260903155423 | 31 | 43 | 1.6 | 3.2 | 0.00 | 0.00 | 0.00 | 13 | 1015.3 |
| 20260903154919 | 31 | 79 | 3.2 | 6.4 | 0.00 | 0.00 | 0.00 | 12 | 1015.3 |
| 20260903154414 | 31 | 87 | 6.4 | 6.4 | 0.00 | 0.00 | 0.00 | 12 | 1015.5 |
| 20260903153914 | 30 | 39 | 0.0 | 3.2 | 0.00 | 0.00 | 0.00 | 13 | 1015.2 |
| 20260903153409 | 30 | 22 | 0.0 | 4.8 | 0.00 | 0.00 | 0.00 | 14 | 1015.6 |
| 20260903152906 | 30 | 357 | 3.2 | 3.2 | 0.00 | 0.00 | 0.00 | 15 | 1015.5 |
| 20260903152401 | 30 | 41 | 3.2 | 3.2 | 0.00 | 0.00 | 0.00 | 15 | 1015.4 |
| 20260903151857 | 30 | 65 | 3.2 | 4.8 | 0.00 | 0.00 | 0.00 | 14 | 1015.5 |
| 20260903151352 | 29 | 320 | 3.2 | 3.2 | 0.00 | 0.00 | 0.00 | 14 | 1015.4 |
| 20260903150847 | 29 | 28 | 0.0 | 4.8 | 0.00 | 0.00 | 0.00 | 16 | 1015.4 |
| 20260903150346 | 31 | 318 | 0.0 | 1.6 | 0.00 | 0.00 | 0.00 | 13 | 1015.4 |
| 20260903145841 | 29 | 48 | 0.0 | 1.6 | 0.00 | 0.00 | 0.00 | 13 | 1015.3 |
| 20260903145337 | 28 | 17 | 1.6 | 3.2 | 0.00 | 0.00 | 0.00 | 15 | 1015.6 |
| 20260903144836 | 30 | 13 | 0.0 | 1.6 | 0.00 | 0.00 | 0.00 | 14 | 1015.4 |
| 20260903144331 | 28 | 27 | 0.0 | 3.2 | 0.00 | 0.00 | 0.00 | 14 | 1015.3 |
| 20260903143826 | 26 | 75 | 0.0 | 3.2 | 0.00 | 0.00 | 0.00 | 15 | 1015.4 |